Flag for Germany Weather past 2 weeks in Meiningen, Thuringia, Germany

33 °F

Drizzle. Low clouds.

Feels Like: 33 °F
Forecast: 23 / 37 °F
Wind: 1 mph from West

Location: Meiningen

Current Time: Nov 26, 2015 at 4:45:00 AM

Latest Report: Nov 26, 2015 at 3:00 AM

Visibility: 3 mi

Pressure: 29.82 "Hg

Humidity: 100%

Dew point: 33 °F

Location of MeiningenLocation

Historic Weather in Meiningen — Graph


Meiningen temperature yesterday

Maximum temperature yesterday: 33 °F (at 8:00 PM)
Minimum temperature yesterday: 30 °F (at 2:00 AM)
Average temperature yesterday: 32 °F

Past Weeks' High & Low Weather Summary

High57 °F (Nov 18, 2:00 AM)100% (Nov 17, 8:00 AM)30.36 "Hg (Nov 17, 8:00 AM)
Low28 °F (Nov 24, 2:00 AM)59% (Nov 18, 5:00 AM)29.41 "Hg (Nov 21, 1:00 PM)
Average43 °F86%29.98 "Hg
* Reported Nov 11 3:00 AM — Nov 26 3:00 AM, Meiningen, Weather by CustomWeather, © 2015

Note: Actual official high and low records may vary slightly from our data, if they occured in-between our weather recording intervals... More about our weather records


Meiningen weather history for previous 24 hours

Time TempWeatherWind HumidityBarometerVisibility
3:00 AM
Thu, Nov 26
33 °FDrizzle. Low clouds.1 mph100%29.82 "Hg3 mi
2:00 AM33 °FLow clouds.1 mph100%29.81 "Hg4 mi
12:00 AM32 °FLow clouds.1 mph99%29.80 "Hg0 mi
11:00 PM
Wed, Nov 25
32 °FLow clouds.1 mph100%29.78 "Hg0 mi
10:00 PM32 °FDrizzle. Low clouds.1 mph100%29.78 "Hg0 mi
9:00 PM33 °FLight snow. Low clouds.2 mph100%29.77 "Hg1 mi
8:00 PM33 °FLow clouds.2 mph100%29.76 "Hg0 mi
7:00 PM33 °FLow clouds.2 mph100%29.75 "Hg0 mi
6:00 PM33 °FLow clouds.2 mph100%29.75 "Hg0 mi
5:00 PM33 °FLow clouds.2 mph100%29.75 "Hg1 mi
4:00 PM33 °FDrizzle. Low clouds.2 mph100%29.74 "Hg1 mi
3:00 PM32 °FSnow flurries. Low clouds.3 mph100%29.75 "Hg3 mi
2:00 PM32 °FLight snow. Low clouds.3 mph100%29.75 "Hg2 mi
1:00 PM32 °FLight snow. Low clouds.3 mph100%29.76 "Hg2 mi
12:00 PM32 °FFog.5 mph100%29.77 "Hg2 mi
11:00 AM31 °FLow clouds.6 mph100%29.79 "Hg1 mi
9:00 AM31 °FLow clouds.6 mph99%29.80 "Hg3 mi
7:00 AM31 °FSnow flurries. Low clouds.3 mph98%29.80 "Hg2 mi
Weather by CustomWeather, © 2015

See weather overviewHow to use our weather pages